Tracking 29892 objects as of 21-Nov-2024
HD Live streaming from Space Station
objects crossing your sky now

STARLINK-30596

Track STARLINK-30596 now!
10-day predictions
STARLINK-30596 is classified as:


NORAD ID: 58110
Int'l Code: 2023-161P
Perigee: 481.5 km
Apogee: 483.2 km
Inclination: 53.2 °
Period: 94.1 minutes
Semi major axis: 6853 km
RCS: Unknown
Launch date: October 21, 2023
Source: United States (US)
Launch site: AIR FORCE WESTERN TEST RANGE (AFWTR)
Your satellite tracking list
Your tracking list is empty




NASA's NSSDC Master Catalog

Two Line Element Set (TLE):
1 58110U 23161P   24324.97207241 -.00000265  00000-0  31800-5 0  9996
2 58110  53.1584 210.3077 0001271  73.5719 286.5421 15.30204518 61741
Source of the keplerian elements: AFSPC